SGDC

Last updated on Sun Dec 07 2025 00:02:49 GMT+0000 (Coordinated Universal Time)

1 42692U 17023B 25339.99937516 -.00000241 00000+0 00000+0 0 9993 2 42692 0.0293 58.5377 0003730 208.2025 93.2312 1.00271606 31474
UTC large
Height (km)
Speed (km/s)
/
Latitude / Longitude
Inclination (degrees)
Orbital Period (minutes)
Azimuth
Elevation
Range (km)
Doppler Factor

Next 0 passes for location: London (51.5072 / 0.1276)

Sorry there are no passes over London.